OPS 4682 DEB, 14047

Orbit data source: Space-Track

OPS 4682 DEB, 14047 is space debris in LEO originally from a launch on Sat, 03 Apr 1965 UTC launched from the Air Force Western Test Range (AFWTR). Debris objects in space refer to the collection of defunct objects orbiting the Earth. Examples of debris include non-operational satellites, rocket bodies, and fragments generated from explosions, collisions, or faulty payload assembly.

Loading next visibility...
Identifier
14047, 1965-027J
Orbit
LEO
Country
Flag of USUS
Related business
Manufacturer
Unknown
Mission
Spacecraft
Bus & Motor
Unknown
Mass
Unknown
Launch date (UTC)
1965-04-03 (61 years ago)
Launch vehicle
Unknown
Launch site
Air Force Western Test Range (AFWTR)
Object type
Payload
Rocket body
Debris
Shape & HBR
Unknown shape, 0.1 m
Radar Cross Section
Medium (>0.1 m² and <1 m²)

Expand to show TLE details & history
Last TLE update: 15 hours ago

TLE from 15 hours ago
0 OPS 4682 DEB
1 14047U 65027J   26263.04884402 -.00000189  00000-0 -68383-3 0  9996
2 14047  90.2455   5.0620 0032257 216.1321 319.9870 12.96674169846300
Epoch: 2026-09-20T01:10Z
TLE epoch observation values (Epoch: 2026-09-20T01:10:20.123Z)
Latitude
4.03062°
Longitude
168.54675°
Altitude
1,258.714 km
Speed
7.235 km/s
True Right ascension
12h 20m 19s
True Declination
4° 00' 29"
Sunlit
Object was in daylight at epoch
Visualization orbit readout
Latitude
Unknown
Longitude
Unknown
Altitude
Unknown
Speed
Unknown
Apparent Right ascension
Unknown
Apparent Declination
Unknown
Sunlit
N/A
Visualization observer readout
Local Sidereal Time
08:49:02
Azimuth
Unknown
Elevation
Unknown
Doppler factor
Unknown
Orbital elements
Apogee altitude
1,296.955 km
Perigee altitude
1,247.599 km
Semi-major axis
7,650.414 km
Eccentricity
0.00323
Inclination
90.2455°
RAAN
5.062°
Arg. of periapsis
216.1321°
True anomaly
319.7486°
Mean anomaly
319.987°
Eccentric anomaly
319.86787°
Mean motion
3.24351 °/min
Orbital period
110.99 mins
BSTAR
-0.00068383
Loading maneuver chart data...
Computing Atmospheric mass density...
Loading historical data...
Loading historical data...
Loading historical data...
Loading historical data...
Loading historical data...
Loading historical data...
Loading historical data...

Documentation

Showing up to 5 results
|